This demonstration page uses our WeatherBlox Daily Observations layout. Learn more.

Left ArrowRight Arrow

30.00354, -91.81873

Hourly Observations for July 24, 2022

Temp ( °F °C ) Dew Point ( °F °C ) Humidity (%) Winds ( mph kmh ) Pressure ( in mb ) Visibility ( mi km ) Precip ( " mm )
12:53 am 00:53 undefined N/A N/A N/A undefined N/A 30.08 1019 N/A 0.00 0.00
1:53 am 01:53 undefined N/A N/A N/A undefined N/A 30.06 1018 N/A 0.00 0.00
2:53 am 02:53 undefined N/A N/A N/A undefined N/A 30.06 1018 N/A 0.00 0.00
3:53 am 03:53 undefined N/A N/A N/A undefined N/A 30.05 1018 N/A 0.00 0.00
4:53 am 04:53 Clear 78 25.6 77 25 97 97 Calm 30.05 1018 7 11 0.00 0.00
5:53 am 05:53 Clear 78 25.6 77 25 97 97 ESE 3 6 30.05 1018 7 11 0.00 0.00
6:53 am 06:53 Sunny 78 25.6 77 25 97 97 Calm 30.07 1018 7 11 0.00 0.00
7:53 am 07:53 Sunny 78 25.6 78 25.6 100 100 Calm 30.09 1019 10 16 0.00 0.00
8:53 am 08:53 Partly Cloudy 83 28.3 80 26.7 91 91 Calm 30.10 1019 10 16 0.00 0.00
9:53 am 09:53 Partly Cloudy 86 30 79 26.1 80 80 SE 5 7 30.09 1019 10 16 0.00 0.00
10:53 am 10:53 Sunny 90 32.2 77 25 66 66 VRB 3 6 30.09 1019 10 16 0.00 0.00
11:53 am 11:53 Mostly Sunny 88 31.1 75 23.9 66 66 S 7 11 30.09 1019 10 16 0.00 0.00
12:53 pm 12:53 Partly Cloudy with Nearby Thunderstorms 90 32.2 73 22.8 58 58 SE 8 13 30.08 1019 10 16 0.00 0.00
1:13 pm 13:13 Mostly Cloudy N/A N/A N/A S 6 9 N/A 10 16 0.00 0.00
1:53 pm 13:53 Mostly Cloudy N/A N/A N/A E 5 7 30.06 1018 10 16 0.00 0.00
2:53 pm 14:53 Mostly Cloudy with Nearby Thunderstorms 90 32.2 73 22.8 58 58 VRB 3 6 30.04 1017 10 16 0.01 0.25
3:03 pm 15:03 Cloudy with Thunderstorms N/A N/A N/A WNW 8 13 N/A 9 14 0.00 0.00
3:50 pm 15:50 Cloudy with Nearby Thunderstorms N/A N/A N/A E 9 15 N/A 10 16 0.01 0.25
3:53 pm 15:53 Cloudy with Nearby Thunderstorms N/A N/A N/A VRB 5 7 30.05 1018 10 16 0.01 0.25
4:21 pm 16:21 Partly Cloudy N/A N/A N/A SE 3 6 N/A 10 16 0.00 0.00
4:39 pm 16:39 Sunny with Nearby Thunderstorms N/A N/A N/A Calm N/A 10 16 0.00 0.00
4:53 pm 16:53 Sunny N/A N/A N/A E 9 15 30.06 1018 10 16 0.00 0.00
5:53 pm 17:53 Sunny N/A N/A N/A S 5 7 30.05 1018 10 16 0.00 0.00
6:53 pm 18:53 Sunny N/A N/A N/A SSE 8 13 30.02 1017 10 16 0.00 0.00
7:53 pm 19:53 Sunny N/A N/A N/A SSE 6 9 30.04 1017 10 16 0.00 0.00
8:53 pm 20:53 Clear N/A N/A N/A ESE 5 7 30.05 1018 10 16 0.00 0.00
9:53 pm 21:53 Clear N/A N/A N/A SE 5 7 30.06 1018 10 16 0.00 0.00
10:53 pm 22:53 Clear N/A N/A N/A SSE 6 9 30.05 1018 10 16 0.00 0.00
11:53 pm 23:53 Clear N/A N/A N/A SE 5 7 30.05 1018 10 16 0.00 0.00

Powered by AerisWeather